This is the latest recevied weather packets stored in our database for station/object NEWPRT. If no packets are shown the sender has not sent any weather packets the latest 10 day(s).
| Time | Temp. | Humidity | Pressure | Rain* | Wind** | Luminosity | Snow |
|---|---|---|---|---|---|---|---|
| 1777754529 | - | 70% | 1015.8 hPa | 0 mm | - | - | - |
| 1777754206 | - | 69% | 1015.9 hPa | 0 mm | - | - | - |
| 1777753883 | - | 64% | 1016 hPa | 0 mm | - | - | - |
| 1777753560 | - | 65% | 1015.9 hPa | 0 mm | - | - | - |
| 1777753237 | - | 66% | 1016 hPa | 0 mm | - | - | - |
| 1777752914 | - | 69% | 1016.1 hPa | 0 mm | - | - | - |
| 1777752591 | - | 70% | 1016.2 hPa | 0 mm | - | - | - |
| 1777752268 | - | 70% | 1016.1 hPa | 0 mm | - | - | - |
| 1777751945 | - | 69% | 1016 hPa | 0 mm | - | - | - |
| 1777751622 | - | 69% | 1016.1 hPa | 0 mm | - | - | - |
| 1777751299 | - | 67% | 1016.2 hPa | 0 mm | - | - | - |
| 1777750976 | - | 65% | 1016.1 hPa | 0 mm | - | - | - |
| 1777750653 | - | 64% | 1016.2 hPa | 0 mm | - | - | - |
| 1777750330 | - | 64% | 1016.2 hPa | 0 mm | - | - | - |
| 1777750009 | - | 62% | 1016.5 hPa | 0 mm | - | - | - |
| 1777749685 | - | 63% | 1016.4 hPa | 0 mm | - | - | - |
| 1777749361 | - | 62% | 1016.5 hPa | 0 mm | - | - | - |
| 1777749038 | - | 60% | 1016.3 hPa | 0 mm | - | - | - |
| 1777748716 | - | 60% | 1016.3 hPa | 0 mm | - | - | - |
| 1777748392 | - | 59% | 1016.5 hPa | 0 mm | - | - | - |
| 1777748069 | - | 57% | 1016.6 hPa | 0 mm | - | - | - |
| 1777747746 | - | 58% | 1016.4 hPa | 0 mm | - | - | - |
| 1777747423 | - | 58% | 1016.7 hPa | 0 mm | - | - | - |
| 1777747100 | - | 60% | 1016.7 hPa | 0 mm | - | - | - |
| 1777746777 | - | 60% | 1016.7 hPa | 0 mm | - | - | - |
* Rain latest hour (hover to see other rain measurements)
** Current wind speed in m/s (hover to see current wind gust speed)